SCP
0 0 0 0 0 0 0 0 0 0 0 0 0 0 0 0 0 0 0 0 0 0 0 0 0 0 0 0 0 0 0 0 0 0 0 0 0 0 0 0 0 0 0 0 0 0 0 0 0 0 0 0 0 0
0 0 0 0 0 0 0 0 0 0 0 0 0 0 0 0 0 0 0 0 0 0 0 0 0 0 0 0 0 0 0 0 0 0 0 0 0 0 0 0 0 0 0 0 0 0 0 0 0 0 -0 -0 -0 0
0 0 0 0 0 0 0 0 0 0 0 0 0 0 0 0 0 0 0 0 0 0 0 0 0 0 0 0 0 0 0 0 0 0 0 0 0 0 0 0 0 0 0 0 0 0 0 0 0 0 0 0 0 0
0 0 0 0 0 0 0 0 0 0 0 0 0 0 0 0 0 0 0 0 0 0 0 0 0 0 0 0 0 0 0 0 0 0 0 0 0 0 0 0 0 0 0 0 0 0 0 0 0 0 0 0 0 0
0 0 0 0 0 0 0 0 0 0 0 0 -0 -0 0 0 0 0 0 0 0 0 0 0 0 0 0 0 0 0 0 0 0 0 0 0 0 0 0 0 0 0 0 0 0 0 0 0 0 0 0 0 0 0
0 0 0 0 0 0 0 0 0 0 0 0 -0 0 0 -0 0 0 0 0 0 0 0 0 0 0 0 0 0 0 0 0 0 0 0 0 0 0 0 0 0 0 0 0 0 0 0 0 0 0 0 0 0 0
0 0 0 0 0 0 0 0 0 0 0 -0 -0 -0 0 0 0 0 0 0 0 0 0 0 0 0 0 0 0 0 0 0 0 0 0 0 0 0 0 0 0 0 0 0 0 0 0 0 0 0 0 0 0 0
0 0 0 0 0 0 0 0 0 0 -0 -0 -0 0 0 0 0 0 -0 -0 0 0 0 0 0 0 0 0 0 0 0 0 0 0 0 0 0 0 0 0 0 0 0 0 0 0 0 0 0 0 0 0 0 0
0 0 0 0 0 0 0 0 0 0 0 0 0 0 0 0 0 0 0 -0 0 0 0 0 0 0 0 0 0 0 0 0 0 0 0 0 0 0 0 0 0 0 0 0 0 0 0 0 0 0 0 0 0 0
-0 0 0 0 0 -0 0 -0 0 0 0 0 0 0 0 0 0 0 0 0 0 0 0 0 0 0 0 0 0 0 0 0 0 0 0 0 0 0 0 0 0 0 0 0 0 0 0 0 0 0 0 0 0 0
-0 -0 -0 -0 0 0 0 0 0 0 -0 0 0 0 0 0 0 0 0 0 0 0 0 0 0 0 0 -0 0 0 0 0 0 0 0 0 0 0 0 0 0 0 0 0 0 0 0 0 0 0 0 0 0 0
-0 -0 -0 -0 -0 -0 0 0 0 0 0 0 0 0 0 0 0 0 0 0 0 0 -0 0 0 0 0 0 0 0 0 0 0 0 0 0 0 0 0 0 0 0 0 0 0 0 0 0 0 0 0 0 0 0
-0 -0 -0 -0 -0 -0 0 -0 0 0 0 0 0 0 0 0 0 0 0 0 0 -0 0 0 0 0 0 0 0 0 0 0 0 0 0 0 0 -0 -0 -0 -0 0 0 0 0 0 0 0 0 0 0 0 0 0
0 0 0 -0 -0 -0 -0 -0 -0 0 0 0 0 0 0 0 0 0 0 0 0 0 0 0 -0 0 0 0 0 0 0 0 0 -0 -0 0 0 0 -0 -0 0 -0 -0 0 -0 0 0 0 0 0 0 0 0 0
0 0 0 0 0 0 -0 -0 0 0 0 0 0 0 0 0 0 0 0 0 0 0 0 0 0 0 0 0 0 0 0 -0 0 0 0 -0 -0 -0 -0 -0 -0 -0 0 0 0 -0 -0 -0 -0 -0 0 0 0 0
0 0 0 0 0 0 0 0 0 0 0 0 0 0 0 0 0 0 0 0 0 0 0 0 -0 0 0 0 -0 0 0 0 0 0 -0 -0 -0 -0 0 0 -0 -0 -0 -0 -0 0 -0 -0 0 0 0 0 0 -0
0 0 0 0 0 -0 0 0 0 0 0 0 0 0 0 0 0 0 0 -0 -0 -0 0 0 -0 -0 -0 -0 0 0 -0 0 -0 0 0 -0 -0 -0 -0 -0 -0 -0 -0 -0 -0 -0 -0 -0 0 -0 -0 0 0 -0
0 0 0 0 0 0 0 0 0 0 0 0 0 0 0 -0 -0 0 -0 -0 -0 -0 -0 -0 -0 -0 0 0 0 0 0 -0 -0 -0 -0 0 -0 -0 -0 -0 -0 -0 -0 -0 0 0 -0 0 0 0 0 0 0 0
0 -0 0 0 0 0 0 0 0 0 -0 -0 -0 -0 -0 -0 -0 -0 -0 -0 -0 -0 -0 -0 -0 -0 0 0 -0 0 0 0 -0 0 0 -0 -0 -0 -0 -0 -0 -0 -0 0 0 0 0 -0 -0 0 -0 -0 0 0
0 0 0 0 0 0 0 0 -0 -0 -0 -0 -0 -0 -0 -0 -0 -0 -0 -0 -0 -0 -0 0 0 -0 0 0 0 -0 -0 0 0 0 -0 -0 -0 -0 -0 0 0 0 0 0 0 0 0 0 -0 -0 -0 0 0 0
0 0 -0 -0 -0 -0 -0 -0 -0 -0 -0 -0 -0 -0 -0 -0 -0 -0 -0 -0 -0 0 0 0 0 0 0 -0 0 -0 0 -0 -0 -0 0 -0 -0 0 0 0 0 0 0 0 0 0 0 0 -0 -0 -0 -0 0 0
0 0 -0 -0 0 0 0 0 0 0 0 0 0 0 0 0 0 0 0 0 0 0 0 0 0 -0 -0 0 0 0 -0 -0 0 0 0 0 0 -0 -0 -0 -0 0 0 0 0 0 0 0 -0 -0 -0 -0 -0 -0
0 0 0 0 0 0 0 0 0 0 0 0 0 0 0 0 0 0 0 0 0 0 0 -0 -0 0 0 0 0 0 0 0 0 -0 0 0 0 0 -0 0 -0 -0 -0 -0 0 0 0 -0 0 -0 -0 -0 -0 -0
0 0 0 0 0 0 0 0 0 0 0 0 0 0 0 0 0 0 0 0 -0 0 0 0 0 0 0 -0 -0 0 0 0 -0 -0 0 0 0 0 -0 -0 -0 0 0 0 -0 0 -0 -0 -0 0 0 0 0 0
0 0 0 0 0 0 0 0 0 0 0 0 0 0 0 0 0 0 0 0 0 0 0 0 0 0 0 -0 -0 -0 -0 -0 -0 -0 0 -0 0 0 -0 -0 0 -0 0 0 0 0 0 0 0 0 0 0 0 -0
0 0 0 0 0 0 0 0 0 0 0 0 0 0 0 0 0 0 0 0 0 0 0 0 0 0 0 0 0 0 0 0 0 0 0 0 0 -0 -0 -0 0 0 0 0 -0 0 0 0 0 0 0 0 0 0
0 0 0 0 0 0 0 0 0 0 0 0 0 0 0 0 0 0 0 0 0 0 0 0 0 -0 0 0 0 0 0 0 0 0 0 -0 0 0 0 0 0 0 0 0 0 0 0 0 0 0 0 0 0 0
0 0 0 0 0 0 0 0 0 0 0 0 0 0 0 0 0 0 0 0 -0 0 0 0 0 0 0 0 -0 -0 -0 -0 -0 -0 0 0 0 0 0 0 0 0 0 0 0 0 0 0 0 0 0 0 0 0
0 0 0 0 0 0 0 0 0 0 0 0 0 0 0 0 0 0 -0 0 -0 0 0 0 -0 -0 -0 -0 -0 0 0 0 0 0 0 0 0 0 0 0 -0 -0 0 0 0 0 0 0 0 0 0 0 0 0
0 0 0 0 -0 -0 0 0 0 0 0 0 0 0 0 0 0 0 -0 -0 0 0 0 -0 -0 0 0 0 0 0 0 0 0 0 0 0 -0 0 0 0 0 0 0 0 0 0 0 0 0 0 0 0 0 0
-0 0 0 0 -0 -0 -0 -0 -0 -0 -0 -0 -0 -0 0 -0 -0 0 0 -0 -0 -0 -0 -0 -0 0 0 0 0 0 0 0 0 -0 -0 0 0 0 0 0 0 0 0 0 0 0 0 0 0 0 -0 0 0 0
0 -0 -0 -0 -0 -0 -0 -0 -0 -0 -0 -0 -0 -0 -0 0 -0 -0 -0 0 -0 0 0 0 0 0 -0 -0 -0 0 0 0 0 0 0 0 0 -0 -0 0 -0 0 0 0 0 0 0 0 0 0 0 0 0 0
0 -0 -0 -0 -0 -0 -0 -0 -0 -0 -0 -0 -0 -0 -0 -0 -0 -0 -0 0 0 -0 -0 -0 0 0 0 -0 -0 -0 0 0 0 0 0 0 0 0 0 0 0 0 0 -0 0 0 0 0 0 0 0 0 0 0
Wind_Speed_500mb
46 45 42 39 35 32 35 36 33 30 34 44 41 37 35 36 33 27 29 37 33 21 39 39 25 15 10 4 1 17 19 6 9 3 5 8 8 12 12 13 10 11 7 7 2 8 16 7 4 9 1 7 12 18
45 45 44 41 37 35 35 36 38 35 30 34 37 35 35 30 33 28 31 25 43 29 29 27 38 39 37 26 14 7 11 19 7 4 5 5 5 4 6 17 9 16 16 9 16 11 8 15 8 10 7 10 8 9
44 44 44 43 39 41 39 38 35 34 31 28 30 34 32 32 30 35 35 22 32 41 52 61 56 45 47 46 40 25 15 7 5 17 3 5 7 2 4 9 7 6 6 6 2 3 0 10 17 12 13 9 3 4
43 44 45 45 41 39 37 35 34 33 35 33 32 29 32 30 21 34 36 31 26 16 11 16 12 30 24 37 27 47 58 50 46 30 9 5 4 1 5 7 5 10 5 2 8 6 1 12 17 7 6 10 6 10
46 44 43 41 41 38 37 35 34 34 37 34 33 27 24 25 24 24 26 29 21 24 10 22 51 40 28 46 38 30 37 53 45 10 7 6 10 5 8 6 23 11 11 7 10 10 13 29 32 22 9 9 10 10
34 33 32 31 36 37 40 34 36 33 32 32 31 31 26 16 18 15 8 13 30 38 12 6 19 39 35 47 43 51 43 41 44 18 14 20 31 8 8 19 22 40 53 52 29 48 27 23 28 28 25 19 19 22
34 37 36 38 37 35 37 33 29 32 30 30 29 30 25 22 29 33 9 21 18 15 8 11 13 17 15 33 62 57 57 43 45 36 21 27 16 16 12 45 13 36 37 37 43 41 50 45 29 30 32 22 24 29
31 33 34 35 33 32 33 33 33 32 31 31 28 26 26 27 29 41 31 24 5 10 14 6 9 15 10 13 16 37 43 48 38 34 16 14 16 19 18 20 41 58 66 75 82 73 83 73 60 44 40 38 36 47
31 28 29 29 33 35 36 35 33 32 30 29 28 31 28 26 20 26 11 21 17 20 6 10 6 7 8 10 6 10 15 6 31 9 20 15 8 18 14 20 40 49 59 66 70 75 80 74 67 54 55 51 45 54
29 29 30 27 28 25 27 34 30 27 28 35 41 19 10 13 17 15 11 12 13 13 15 9 11 7 17 13 8 4 1 3 5 9 21 15 30 69 92 93 87 79 69 63 65 61 67 65 55 52 62 56 42 50
32 34 35 35 35 31 31 32 28 28 46 49 18 13 14 9 23 11 11 11 13 8 16 18 39 20 24 5 6 6 4 3 5 10 9 7 11 29 70 91 105 108 100 87 83 80 73 67 60 50 40 32 32 55
23 27 28 28 31 45 44 42 36 64 49 37 17 17 13 13 10 5 7 6 8 8 13 14 19 27 15 23 10 5 3 2 11 5 6 8 8 22 36 57 71 76 82 84 85 82 72 54 36 34 37 29 34 61
25 25 28 30 32 31 41 43 44 70 48 24 12 14 10 11 10 10 12 7 6 9 11 16 7 11 15 20 7 5 7 10 17 5 9 11 25 38 27 41 35 42 63 64 59 61 65 55 39 33 36 32 55 75
17 21 24 28 32 43 41 45 68 51 36 9 11 7 7 7 9 10 9 9 24 11 6 4 10 8 9 6 6 8 8 6 9 9 10 9 45 47 47 27 22 29 18 10 23 32 45 45 39 35 30 36 78 70
17 22 23 22 36 50 48 60 53 38 11 10 9 8 12 22 22 19 33 35 26 15 13 3 3 10 3 3 4 5 7 9 9 8 7 55 73 62 26 14 16 14 13 8 18 35 24 19 17 20 50 56 66 76
20 28 31 34 38 51 57 57 41 31 5 3 8 7 18 13 11 10 21 5 5 12 5 6 3 2 8 5 7 12 7 11 6 7 38 67 68 32 25 20 12 8 10 12 16 16 21 33 41 50 58 69 74 78
14 15 26 25 41 47 71 42 24 7 5 7 13 25 38 34 27 31 13 18 2 7 1 5 4 9 3 6 8 7 9 5 17 57 73 30 4 23 29 36 42 39 38 36 39 48 56 58 59 62 64 64 70 57
17 23 44 55 49 44 38 12 7 9 13 23 13 31 29 32 36 30 13 10 1 3 9 8 5 9 7 7 7 3 10 42 47 50 20 20 30 47 53 53 49 56 56 54 57 60 61 63 66 69 35 34 32 33
21 32 41 51 49 23 12 17 12 8 23 24 34 43 37 26 24 26 23 21 13 7 7 6 8 6 6 9 12 49 58 59 47 13 24 30 36 37 35 33 28 30 35 36 35 33 28 26 37 37 37 45 47 38
31 31 39 45 18 3 7 9 13 11 8 9 15 19 15 16 20 22 24 25 26 10 12 9 8 10 22 58 55 66 44 26 24 29 28 19 18 23 35 40 43 36 31 25 31 38 40 37 37 42 44 34 36 41
34 40 43 27 15 12 6 9 12 11 11 11 13 13 12 16 16 15 20 23 17 9 6 18 34 54 59 43 8 18 22 23 27 27 26 18 21 25 20 14 13 16 16 32 37 37 32 33 38 41 38 31 36 38
21 41 34 26 7 8 13 16 11 9 13 13 13 14 6 6 8 4 19 3 9 13 17 20 19 11 7 8 16 31 30 26 17 19 33 29 30 25 29 24 24 21 23 27 31 30 30 24 24 23 20 30 28 22
26 27 9 16 15 10 8 9 8 8 4 3 2 3 4 6 2 9 4 1 7 28 13 17 28 33 31 25 42 36 16 17 16 20 11 18 18 19 19 20 15 23 25 26 25 21 22 21 20 24 27 27 21 17
12 11 8 6 10 7 9 5 6 5 4 2 2 3 3 1 6 7 4 1 8 3 2 2 6 3 17 22 21 12 7 11 17 8 15 8 13 19 17 20 15 12 15 20 16 20 17 14 13 12 14 20 21 30
7 6 5 6 7 6 5 5 4 3 3 5 3 3 1 4 3 5 3 3 15 24 24 13 20 30 27 18 26 20 15 13 12 17 12 20 25 14 30 15 11 9 10 23 21 17 20 17 17 16 14 20 28 26
4 6 8 5 5 6 5 5 4 4 6 5 2 7 9 3 6 6 3 6 4 7 21 23 21 29 27 19 19 18 17 19 17 14 7 17 20 25 31 22 19 13 8 18 25 27 19 18 17 13 7 8 19 26
7 8 12 14 9 7 8 13 13 8 5 7 9 9 5 5 6 3 13 6 11 19 24 19 23 23 20 23 22 17 15 16 15 17 13 14 9 15 10 11 9 15 11 11 12 19 20 23 21 17 12 12 10 7
14 8 8 13 10 13 7 5 4 4 6 6 5 4 5 6 4 16 4 17 23 19 17 24 21 20 21 18 19 16 18 20 12 16 13 13 16 7 4 2 2 7 4 14 11 7 6 19 19 15 20 16 16 14
13 13 22 10 12 9 9 6 5 8 4 15 7 8 7 21 26 23 24 16 10 15 26 19 15 11 18 16 16 11 20 13 12 16 15 13 11 13 10 4 7 9 5 8 8 8 8 13 13 7 7 14 12 14
6 23 14 11 5 11 25 34 47 51 53 54 57 58 55 47 44 28 24 23 24 15 14 16 13 15 21 19 17 12 10 10 5 9 11 6 12 19 11 5 4 17 12 9 1 3 5 3 3 5 12 12 11 17
26 23 17 23 18 49 50 46 46 45 45 51 51 58 55 42 34 25 18 19 20 16 16 18 20 19 14 19 18 17 16 17 6 3 9 14 13 12 17 13 10 13 14 9 8 9 4 6 7 2 6 3 1 2
11 34 32 7 2 29 40 41 35 38 40 39 32 35 33 33 26 29 23 17 20 20 18 17 19 19 18 23 21 16 15 13 7 11 10 10 14 15 12 15 16 14 17 13 13 9 4 1 5 5 1 2 5 9
2 20 33 14 4 3 24 22 10 10 22 24 12 13 26 21 10 8 17 18 18 19 19 19 18 16 15 24 32 26 25 27 27 26 23 21 21 20 19 18 18 22 32 18 15 13 5 4 3 4 5 5 8 10
Wind_Direction_500mb
259 256 254 254 253 261 269 264 265 269 265 258 256 261 268 247 239 244 256 214 227 250 259 262 261 277 301 256 250 314 337 323 6 73 163 216 192 214 200 186 178 195 185 218 194 234 299 182 102 211 124 354 347 325
251 254 252 254 251 258 263 264 260 259 262 262 247 256 248 242 239 241 247 238 227 257 258 249 256 248 241 244 278 286 278 300 342 59 11 309 317 326 202 243 204 228 206 204 187 216 273 27 51 338 28 10 359 321
252 249 251 250 250 256 257 252 256 253 249 248 239 240 246 238 248 229 235 229 234 262 276 268 267 267 252 250 254 240 267 240 67 1 291 265 267 73 246 236 223 203 41 190 125 224 331 24 84 66 49 113 123 304
251 249 251 249 251 251 249 246 244 245 243 238 247 243 242 245 258 216 227 231 228 265 272 281 312 261 230 226 257 247 251 257 286 293 270 244 227 329 253 269 212 226 30 166 262 289 4 27 1 347 7 339 205 265
250 253 250 246 244 242 243 244 244 240 239 238 239 233 236 236 238 226 235 240 231 228 306 300 293 271 259 236 244 248 251 248 255 257 226 233 231 236 261 279 248 192 205 208 233 199 281 279 294 279 247 294 282 273
248 241 240 240 239 238 239 240 237 238 235 231 226 225 224 220 229 218 273 249 240 233 284 289 310 282 263 244 235 235 235 241 227 201 224 237 233 240 230 254 249 241 238 239 257 274 273 291 277 248 256 241 264 261
243 244 244 241 241 240 237 231 233 231 225 218 220 221 214 212 213 203 198 145 110 196 239 280 274 273 307 238 237 234 232 239 232 230 226 237 253 224 253 252 122 257 267 269 261 266 280 276 250 255 257 251 263 235
246 246 243 237 239 237 232 232 227 222 216 215 209 209 200 215 232 236 210 212 258 216 205 255 271 293 222 186 186 216 221 229 231 234 242 216 216 213 251 275 256 253 256 257 258 256 261 267 270 254 248 252 244 211
248 243 239 239 236 235 234 227 216 211 213 213 203 193 190 214 229 241 254 256 236 222 230 231 238 264 25 37 185 168 206 190 241 204 227 224 204 226 248 248 241 240 239 250 261 256 256 255 258 254 243 243 233 216
238 240 238 232 227 228 214 200 197 196 202 189 178 166 194 237 182 184 175 177 211 218 229 248 246 265 348 9 9 7 173 240 302 247 228 230 247 251 251 257 261 259 257 258 245 243 248 252 254 254 248 242 241 225
242 240 239 232 224 215 201 194 189 182 178 172 163 180 164 123 177 189 193 194 198 231 216 228 219 236 256 155 238 259 218 268 278 264 171 254 250 239 253 255 262 264 260 253 248 251 254 254 258 251 238 248 259 232
231 222 219 218 218 215 208 203 206 181 184 166 130 147 179 179 198 199 180 237 214 238 204 194 229 214 232 213 190 228 233 208 254 274 257 256 250 262 285 283 277 274 271 259 250 241 243 240 237 253 242 246 242 223
224 223 219 212 206 205 192 196 197 193 167 135 157 176 171 183 191 204 194 207 238 227 216 209 200 189 199 194 171 134 228 243 315 254 240 243 279 291 320 322 322 288 271 262 259 241 228 236 238 243 248 243 216 191
214 210 203 207 206 190 177 181 182 173 150 147 174 178 210 194 241 203 206 205 223 254 99 211 200 141 273 144 165 182 226 252 251 246 257 272 292 300 311 289 341 357 9 240 224 215 212 216 219 239 244 196 182 183
172 170 176 168 165 167 169 177 163 163 147 167 182 218 220 233 251 272 244 261 261 276 311 228 128 153 276 165 210 208 233 242 251 248 298 302 306 308 303 276 334 315 296 13 194 194 195 209 224 207 184 182 186 181
168 166 156 155 152 159 165 150 153 166 98 184 223 267 260 308 301 339 350 299 288 302 246 174 210 65 224 178 190 215 238 232 251 263 299 293 296 305 281 275 294 284 239 237 216 206 167 171 173 163 163 168 177 178
105 120 158 167 156 156 164 165 155 143 194 222 238 244 255 273 273 285 306 327 16 344 21 322 183 218 160 216 215 215 220 233 312 300 297 284 62 101 108 114 117 117 114 113 118 130 140 150 155 147 134 142 150 153
112 127 150 134 138 143 155 136 169 199 234 231 225 249 240 254 266 272 298 248 265 334 171 197 253 217 226 233 214 228 307 298 302 259 267 100 113 112 107 106 104 102 102 109 115 126 131 139 143 144 160 158 165 151
140 139 147 151 146 130 150 184 209 244 235 249 252 259 259 267 261 270 267 258 243 301 247 221 249 239 213 247 285 287 291 283 279 165 102 109 103 106 105 99 98 100 107 113 115 124 133 135 140 145 144 146 146 158
131 142 151 145 152 185 205 206 203 250 256 247 253 258 270 260 253 252 254 243 265 224 208 217 227 222 249 272 260 275 268 237 145 120 96 104 95 100 99 100 95 101 120 137 135 135 137 138 141 150 158 162 159 164
135 146 158 177 229 257 255 239 219 236 258 260 272 279 274 273 262 233 253 220 194 202 242 241 259 267 275 293 304 162 147 134 124 122 135 145 122 110 105 92 119 141 125 132 142 150 154 148 154 160 161 161 165 159
163 171 179 199 265 247 241 229 240 225 209 231 226 201 250 278 270 194 142 144 195 225 227 267 257 289 318 68 126 125 124 129 134 126 132 127 139 128 127 113 126 134 128 125 132 138 148 153 167 169 162 161 168 172
163 169 209 217 224 243 264 240 242 207 240 248 271 228 231 237 143 144 126 268 107 122 109 107 84 63 60 97 140 152 126 131 118 138 121 134 129 139 126 139 129 122 135 138 141 137 129 135 139 142 154 164 174 188
166 212 248 227 226 264 292 270 249 249 249 268 243 234 208 96 43 47 102 46 317 324 100 193 158 204 154 125 108 118 104 116 137 152 66 123 162 166 130 128 128 130 136 138 161 171 149 157 162 167 194 214 241 215
258 241 246 272 254 256 257 255 232 237 247 222 224 125 130 149 95 74 115 164 103 54 24 54 54 135 129 124 120 104 88 164 157 106 93 127 108 140 161 145 150 93 165 191 195 193 182 198 190 202 245 209 197 205
259 245 208 240 216 222 255 274 251 224 207 191 173 144 170 169 84 51 49 210 107 65 141 110 56 107 115 93 81 82 81 80 120 139 94 102 138 140 150 150 143 150 154 175 173 178 179 195 190 195 175 169 210 225
249 246 232 236 263 247 259 261 272 284 278 162 154 182 211 101 85 179 158 162 67 94 141 138 94 93 99 80 73 83 90 92 110 97 83 95 88 147 158 172 165 167 174 188 181 185 196 194 210 211 205 184 193 223
240 254 245 185 210 233 282 275 269 282 323 41 64 73 66 74 125 175 159 118 116 102 116 102 84 83 77 97 56 85 81 69 108 161 138 128 132 131 182 150 88 184 218 196 195 230 265 216 213 229 244 239 237 251
226 220 170 191 228 232 201 229 257 302 9 74 59 51 62 97 123 131 131 123 98 84 89 114 64 76 72 84 49 56 25 39 68 109 114 92 128 182 142 181 165 164 194 191 217 248 276 245 238 256 257 238 267 265
236 174 193 189 146 89 87 100 95 96 98 97 95 89 82 74 89 108 104 101 116 109 95 95 93 71 62 66 75 75 41 31 66 49 98 111 152 129 59 88 145 183 184 179 163 61 70 104 175 251 267 269 276 304
118 85 67 83 94 106 114 106 105 100 108 100 93 93 96 97 86 96 106 86 105 102 82 84 81 68 54 29 19 32 30 18 272 113 50 87 114 137 113 120 167 173 171 179 188 168 135 335 350 47 170 111 254 311
137 116 101 103 23 109 119 116 117 113 112 115 111 113 108 91 80 59 70 73 76 78 66 57 55 64 46 40 34 32 44 67 90 128 131 77 55 44 28 29 19 21 1 328 297 243 119 18 211 323 238 42 39 32
330 123 135 128 88 233 135 132 126 118 132 122 104 133 102 88 73 73 53 56 66 65 59 54 57 51 49 48 48 64 74 80 82 83 80 76 73 66 57 60 73 66 70 107 133 138 91 55 5 328 341 8 351 349
Wind_Speed_850mb
46 45 42 39 35 32 35 36 33 30 34 44 41 37 35 36 33 27 29 37 33 21 39 39 25 15 10 4 1 17 19 6 9 3 5 8 8 12 12 13 10 11 7 7 2 8 16 7 4 9 1 7 12 18
45 45 44 41 37 35 35 36 38 35 30 34 37 35 35 30 33 28 31 25 43 29 29 27 38 39 37 26 14 7 11 19 7 4 5 5 5 4 6 17 9 16 16 9 16 11 8 15 8 10 7 10 8 9
44 44 44 43 39 41 39 38 35 34 31 28 30 34 32 32 30 35 35 22 32 41 52 61 56 45 47 46 40 25 15 7 5 17 3 5 7 2 4 9 7 6 6 6 2 3 0 10 17 12 13 9 3 4
43 44 45 45 41 39 37 35 34 33 35 33 32 29 32 30 21 34 36 31 26 16 11 16 12 30 24 37 27 47 58 50 46 30 9 5 4 1 5 7 5 10 5 2 8 6 1 12 17 7 6 10 6 10
46 44 43 41 41 38 37 35 34 34 37 34 33 27 24 25 24 24 26 29 21 24 10 22 51 40 28 46 38 30 37 53 45 10 7 6 10 5 8 6 23 11 11 7 10 10 13 29 32 22 9 9 10 10
34 33 32 31 36 37 40 34 36 33 32 32 31 31 26 16 18 15 8 13 30 38 12 6 19 39 35 47 43 51 43 41 44 18 14 20 31 8 8 19 22 40 53 52 29 48 27 23 28 28 25 19 19 22
34 37 36 38 37 35 37 33 29 32 30 30 29 30 25 22 29 33 9 21 18 15 8 11 13 17 15 33 62 57 57 43 45 36 21 27 16 16 12 45 13 36 37 37 43 41 50 45 29 30 32 22 24 29
31 33 34 35 33 32 33 33 33 32 31 31 28 26 26 27 29 41 31 24 5 10 14 6 9 15 10 13 16 37 43 48 38 34 16 14 16 19 18 20 41 58 66 75 82 73 83 73 60 44 40 38 36 47
31 28 29 29 33 35 36 35 33 32 30 29 28 31 28 26 20 26 11 21 17 20 6 10 6 7 8 10 6 10 15 6 31 9 20 15 8 18 14 20 40 49 59 66 70 75 80 74 67 54 55 51 45 54
29 29 30 27 28 25 27 34 30 27 28 35 41 19 10 13 17 15 11 12 13 13 15 9 11 7 17 13 8 4 1 3 5 9 21 15 30 69 92 93 87 79 69 63 65 61 67 65 55 52 62 56 42 50
32 34 35 35 35 31 31 32 28 28 46 49 18 13 14 9 23 11 11 11 13 8 16 18 39 20 24 5 6 6 4 3 5 10 9 7 11 29 70 91 105 108 100 87 83 80 73 67 60 50 40 32 32 55
23 27 28 28 31 45 44 42 36 64 49 37 17 17 13 13 10 5 7 6 8 8 13 14 19 27 15 23 10 5 3 2 11 5 6 8 8 22 36 57 71 76 82 84 85 82 72 54 36 34 37 29 34 61
25 25 28 30 32 31 41 43 44 70 48 24 12 14 10 11 10 10 12 7 6 9 11 16 7 11 15 20 7 5 7 10 17 5 9 11 25 38 27 41 35 42 63 64 59 61 65 55 39 33 36 32 55 75
17 21 24 28 32 43 41 45 68 51 36 9 11 7 7 7 9 10 9 9 24 11 6 4 10 8 9 6 6 8 8 6 9 9 10 9 45 47 47 27 22 29 18 10 23 32 45 45 39 35 30 36 78 70
17 22 23 22 36 50 48 60 53 38 11 10 9 8 12 22 22 19 33 35 26 15 13 3 3 10 3 3 4 5 7 9 9 8 7 55 73 62 26 14 16 14 13 8 18 35 24 19 17 20 50 56 66 76
20 28 31 34 38 51 57 57 41 31 5 3 8 7 18 13 11 10 21 5 5 12 5 6 3 2 8 5 7 12 7 11 6 7 38 67 68 32 25 20 12 8 10 12 16 16 21 33 41 50 58 69 74 78
14 15 26 25 41 47 71 42 24 7 5 7 13 25 38 34 27 31 13 18 2 7 1 5 4 9 3 6 8 7 9 5 17 57 73 30 4 23 29 36 42 39 38 36 39 48 56 58 59 62 64 64 70 57
17 23 44 55 49 44 38 12 7 9 13 23 13 31 29 32 36 30 13 10 1 3 9 8 5 9 7 7 7 3 10 42 47 50 20 20 30 47 53 53 49 56 56 54 57 60 61 63 66 69 35 34 32 33
21 32 41 51 49 23 12 17 12 8 23 24 34 43 37 26 24 26 23 21 13 7 7 6 8 6 6 9 12 49 58 59 47 13 24 30 36 37 35 33 28 30 35 36 35 33 28 26 37 37 37 45 47 38
31 31 39 45 18 3 7 9 13 11 8 9 15 19 15 16 20 22 24 25 26 10 12 9 8 10 22 58 55 66 44 26 24 29 28 19 18 23 35 40 43 36 31 25 31 38 40 37 37 42 44 34 36 41
34 40 43 27 15 12 6 9 12 11 11 11 13 13 12 16 16 15 20 23 17 9 6 18 34 54 59 43 8 18 22 23 27 27 26 18 21 25 20 14 13 16 16 32 37 37 32 33 38 41 38 31 36 38
21 41 34 26 7 8 13 16 11 9 13 13 13 14 6 6 8 4 19 3 9 13 17 20 19 11 7 8 16 31 30 26 17 19 33 29 30 25 29 24 24 21 23 27 31 30 30 24 24 23 20 30 28 22
26 27 9 16 15 10 8 9 8 8 4 3 2 3 4 6 2 9 4 1 7 28 13 17 28 33 31 25 42 36 16 17 16 20 11 18 18 19 19 20 15 23 25 26 25 21 22 21 20 24 27 27 21 17
12 11 8 6 10 7 9 5 6 5 4 2 2 3 3 1 6 7 4 1 8 3 2 2 6 3 17 22 21 12 7 11 17 8 15 8 13 19 17 20 15 12 15 20 16 20 17 14 13 12 14 20 21 30
7 6 5 6 7 6 5 5 4 3 3 5 3 3 1 4 3 5 3 3 15 24 24 13 20 30 27 18 26 20 15 13 12 17 12 20 25 14 30 15 11 9 10 23 21 17 20 17 17 16 14 20 28 26
4 6 8 5 5 6 5 5 4 4 6 5 2 7 9 3 6 6 3 6 4 7 21 23 21 29 27 19 19 18 17 19 17 14 7 17 20 25 31 22 19 13 8 18 25 27 19 18 17 13 7 8 19 26
7 8 12 14 9 7 8 13 13 8 5 7 9 9 5 5 6 3 13 6 11 19 24 19 23 23 20 23 22 17 15 16 15 17 13 14 9 15 10 11 9 15 11 11 12 19 20 23 21 17 12 12 10 7
14 8 8 13 10 13 7 5 4 4 6 6 5 4 5 6 4 16 4 17 23 19 17 24 21 20 21 18 19 16 18 20 12 16 13 13 16 7 4 2 2 7 4 14 11 7 6 19 19 15 20 16 16 14
13 13 22 10 12 9 9 6 5 8 4 15 7 8 7 21 26 23 24 16 10 15 26 19 15 11 18 16 16 11 20 13 12 16 15 13 11 13 10 4 7 9 5 8 8 8 8 13 13 7 7 14 12 14
6 23 14 11 5 11 25 34 47 51 53 54 57 58 55 47 44 28 24 23 24 15 14 16 13 15 21 19 17 12 10 10 5 9 11 6 12 19 11 5 4 17 12 9 1 3 5 3 3 5 12 12 11 17
26 23 17 23 18 49 50 46 46 45 45 51 51 58 55 42 34 25 18 19 20 16 16 18 20 19 14 19 18 17 16 17 6 3 9 14 13 12 17 13 10 13 14 9 8 9 4 6 7 2 6 3 1 2
11 34 32 7 2 29 40 41 35 38 40 39 32 35 33 33 26 29 23 17 20 20 18 17 19 19 18 23 21 16 15 13 7 11 10 10 14 15 12 15 16 14 17 13 13 9 4 1 5 5 1 2 5 9
2 20 33 14 4 3 24 22 10 10 22 24 12 13 26 21 10 8 17 18 18 19 19 19 18 16 15 24 32 26 25 27 27 26 23 21 21 20 19 18 18 22 32 18 15 13 5 4 3 4 5 5 8 10
Wind_Direction_850mb
259 256 254 254 253 261 269 264 265 269 265 258 256 261 268 247 239 244 256 214 227 250 259 262 261 277 301 256 250 314 337 323 6 73 163 216 192 214 200 186 178 195 185 218 194 234 299 182 102 211 124 354 347 325
251 254 252 254 251 258 263 264 260 259 262 262 247 256 248 242 239 241 247 238 227 257 258 249 256 248 241 244 278 286 278 300 342 59 11 309 317 326 202 243 204 228 206 204 187 216 273 27 51 338 28 10 359 321
252 249 251 250 250 256 257 252 256 253 249 248 239 240 246 238 248 229 235 229 234 262 276 268 267 267 252 250 254 240 267 240 67 1 291 265 267 73 246 236 223 203 41 190 125 224 331 24 84 66 49 113 123 304
251 249 251 249 251 251 249 246 244 245 243 238 247 243 242 245 258 216 227 231 228 265 272 281 312 261 230 226 257 247 251 257 286 293 270 244 227 329 253 269 212 226 30 166 262 289 4 27 1 347 7 339 205 265
250 253 250 246 244 242 243 244 244 240 239 238 239 233 236 236 238 226 235 240 231 228 306 300 293 271 259 236 244 248 251 248 255 257 226 233 231 236 261 279 248 192 205 208 233 199 281 279 294 279 247 294 282 273
248 241 240 240 239 238 239 240 237 238 235 231 226 225 224 220 229 218 273 249 240 233 284 289 310 282 263 244 235 235 235 241 227 201 224 237 233 240 230 254 249 241 238 239 257 274 273 291 277 248 256 241 264 261
243 244 244 241 241 240 237 231 233 231 225 218 220 221 214 212 213 203 198 145 110 196 239 280 274 273 307 238 237 234 232 239 232 230 226 237 253 224 253 252 122 257 267 269 261 266 280 276 250 255 257 251 263 235
246 246 243 237 239 237 232 232 227 222 216 215 209 209 200 215 232 236 210 212 258 216 205 255 271 293 222 186 186 216 221 229 231 234 242 216 216 213 251 275 256 253 256 257 258 256 261 267 270 254 248 252 244 211
248 243 239 239 236 235 234 227 216 211 213 213 203 193 190 214 229 241 254 256 236 222 230 231 238 264 25 37 185 168 206 190 241 204 227 224 204 226 248 248 241 240 239 250 261 256 256 255 258 254 243 243 233 216
238 240 238 232 227 228 214 200 197 196 202 189 178 166 194 237 182 184 175 177 211 218 229 248 246 265 348 9 9 7 173 240 302 247 228 230 247 251 251 257 261 259 257 258 245 243 248 252 254 254 248 242 241 225
242 240 239 232 224 215 201 194 189 182 178 172 163 180 164 123 177 189 193 194 198 231 216 228 219 236 256 155 238 259 218 268 278 264 171 254 250 239 253 255 262 264 260 253 248 251 254 254 258 251 238 248 259 232
231 222 219 218 218 215 208 203 206 181 184 166 130 147 179 179 198 199 180 237 214 238 204 194 229 214 232 213 190 228 233 208 254 274 257 256 250 262 285 283 277 274 271 259 250 241 243 240 237 253 242 246 242 223
224 223 219 212 206 205 192 196 197 193 167 135 157 176 171 183 191 204 194 207 238 227 216 209 200 189 199 194 171 134 228 243 315 254 240 243 279 291 320 322 322 288 271 262 259 241 228 236 238 243 248 243 216 191
214 210 203 207 206 190 177 181 182 173 150 147 174 178 210 194 241 203 206 205 223 254 99 211 200 141 273 144 165 182 226 252 251 246 257 272 292 300 311 289 341 357 9 240 224 215 212 216 219 239 244 196 182 183
172 170 176 168 165 167 169 177 163 163 147 167 182 218 220 233 251 272 244 261 261 276 311 228 128 153 276 165 210 208 233 242 251 248 298 302 306 308 303 276 334 315 296 13 194 194 195 209 224 207 184 182 186 181
168 166 156 155 152 159 165 150 153 166 98 184 223 267 260 308 301 339 350 299 288 302 246 174 210 65 224 178 190 215 238 232 251 263 299 293 296 305 281 275 294 284 239 237 216 206 167 171 173 163 163 168 177 178
105 120 158 167 156 156 164 165 155 143 194 222 238 244 255 273 273 285 306 327 16 344 21 322 183 218 160 216 215 215 220 233 312 300 297 284 62 101 108 114 117 117 114 113 118 130 140 150 155 147 134 142 150 153
112 127 150 134 138 143 155 136 169 199 234 231 225 249 240 254 266 272 298 248 265 334 171 197 253 217 226 233 214 228 307 298 302 259 267 100 113 112 107 106 104 102 102 109 115 126 131 139 143 144 160 158 165 151
140 139 147 151 146 130 150 184 209 244 235 249 252 259 259 267 261 270 267 258 243 301 247 221 249 239 213 247 285 287 291 283 279 165 102 109 103 106 105 99 98 100 107 113 115 124 133 135 140 145 144 146 146 158
131 142 151 145 152 185 205 206 203 250 256 247 253 258 270 260 253 252 254 243 265 224 208 217 227 222 249 272 260 275 268 237 145 120 96 104 95 100 99 100 95 101 120 137 135 135 137 138 141 150 158 162 159 164
135 146 158 177 229 257 255 239 219 236 258 260 272 279 274 273 262 233 253 220 194 202 242 241 259 267 275 293 304 162 147 134 124 122 135 145 122 110 105 92 119 141 125 132 142 150 154 148 154 160 161 161 165 159
163 171 179 199 265 247 241 229 240 225 209 231 226 201 250 278 270 194 142 144 195 225 227 267 257 289 318 68 126 125 124 129 134 126 132 127 139 128 127 113 126 134 128 125 132 138 148 153 167 169 162 161 168 172
163 169 209 217 224 243 264 240 242 207 240 248 271 228 231 237 143 144 126 268 107 122 109 107 84 63 60 97 140 152 126 131 118 138 121 134 129 139 126 139 129 122 135 138 141 137 129 135 139 142 154 164 174 188
166 212 248 227 226 264 292 270 249 249 249 268 243 234 208 96 43 47 102 46 317 324 100 193 158 204 154 125 108 118 104 116 137 152 66 123 162 166 130 128 128 130 136 138 161 171 149 157 162 167 194 214 241 215
258 241 246 272 254 256 257 255 232 237 247 222 224 125 130 149 95 74 115 164 103 54 24 54 54 135 129 124 120 104 88 164 157 106 93 127 108 140 161 145 150 93 165 191 195 193 182 198 190 202 245 209 197 205
259 245 208 240 216 222 255 274 251 224 207 191 173 144 170 169 84 51 49 210 107 65 141 110 56 107 115 93 81 82 81 80 120 139 94 102 138 140 150 150 143 150 154 175 173 178 179 195 190 195 175 169 210 225
249 246 232 236 263 247 259 261 272 284 278 162 154 182 211 101 85 179 158 162 67 94 141 138 94 93 99 80 73 83 90 92 110 97 83 95 88 147 158 172 165 167 174 188 181 185 196 194 210 211 205 184 193 223
240 254 245 185 210 233 282 275 269 282 323 41 64 73 66 74 125 175 159 118 116 102 116 102 84 83 77 97 56 85 81 69 108 161 138 128 132 131 182 150 88 184 218 196 195 230 265 216 213 229 244 239 237 251
226 220 170 191 228 232 201 229 257 302 9 74 59 51 62 97 123 131 131 123 98 84 89 114 64 76 72 84 49 56 25 39 68 109 114 92 128 182 142 181 165 164 194 191 217 248 276 245 238 256 257 238 267 265
236 174 193 189 146 89 87 100 95 96 98 97 95 89 82 74 89 108 104 101 116 109 95 95 93 71 62 66 75 75 41 31 66 49 98 111 152 129 59 88 145 183 184 179 163 61 70 104 175 251 267 269 276 304
118 85 67 83 94 106 114 106 105 100 108 100 93 93 96 97 86 96 106 86 105 102 82 84 81 68 54 29 19 32 30 18 272 113 50 87 114 137 113 120 167 173 171 179 188 168 135 335 350 47 170 111 254 311
137 116 101 103 23 109 119 116 117 113 112 115 111 113 108 91 80 59 70 73 76 78 66 57 55 64 46 40 34 32 44 67 90 128 131 77 55 44 28 29 19 21 1 328 297 243 119 18 211 323 238 42 39 32
330 123 135 128 88 233 135 132 126 118 132 122 104 133 102 88 73 73 53 56 66 65 59 54 57 51 49 48 48 64 74 80 82 83 80 76 73 66 57 60 73 66 70 107 133 138 91 55 5 328 341 8 351 349